GW4085 Weather Reports


Display with metric or nautical units.
time (UTC)temp
F
wind
direction
speed
MPH
gust
MPH
rain 1hr
in
rain 24hr
in
rain mn
in
humidity
%
barometer
mb
20260507122121 47 161 0.0 0.0 0.00 0.00 0.00 81 1019.2
20260507121618 45 164 0.0 0.0 0.00 0.00 0.00 84 1019.1
20260507121113 44 153 0.0 0.0 0.00 0.00 0.00 86 1019.2
20260507120609 42 164 0.0 1.0 0.00 0.00 0.00 88 1019.1
20260507120106 42 173 0.0 0.0 0.00 0.00 0.00 90 1018.9
20260507115603 42 171 0.0 0.0 0.00 0.00 0.00 91 1019.1
20260507115059 42 170 0.0 0.0 0.00 0.00 0.00 91 1019.1
20260507114554 42 170 0.0 0.0 0.00 0.00 0.00 92 1019.0
20260507114052 42 170 0.0 0.0 0.00 0.00 0.00 93 1019.1
20260507113549 42 170 0.0 0.0 0.00 0.00 0.00 93 1018.8
20260507113046 41 161 0.0 0.0 0.00 0.00 0.00 93 1018.8
20260507112544 41 161 0.0 0.0 0.00 0.00 0.00 93 1018.7
20260507112040 41 161 0.0 0.0 0.00 0.00 0.00 94 1018.4
20260507111538 41 161 0.0 0.0 0.00 0.00 0.00 94 1018.6
20260507111034 41 161 0.0 0.0 0.00 0.00 0.00 93 1018.2
20260507110531 41 161 0.0 0.0 0.00 0.00 0.00 93 1018.5
20260507110027 41 161 0.0 0.0 0.00 0.00 0.00 92 1018.4
20260507105524 41 161 0.0 0.0 0.00 0.00 0.00 92 1018.6
20260507105020 41 161 0.0 0.0 0.00 0.00 0.00 92 1018.4
20260507104518 42 161 0.0 0.0 0.00 0.00 0.00 92 1018.7
20260507104015 42 161 0.0 0.0 0.00 0.00 0.00 93 1018.4
20260507103510 42 161 0.0 0.0 0.00 0.00 0.00 93 1018.4
20260507103007 41 161 0.0 0.0 0.00 0.00 0.00 94 1018.5
20260507102504 41 161 0.0 0.0 0.00 0.00 0.00 94 1018.7
20260507102000 41 161 0.0 0.0 0.00 0.00 0.00 94 1018.6
20260507101455 41 161 0.0 0.0 0.00 0.00 0.00 94 1018.4
20260507100952 41 160 0.0 0.0 0.00 0.00 0.00 95 1018.5
20260507100449 40 160 0.0 0.0 0.00 0.00 0.00 95 1018.3
20260507095947 40 161 0.0 0.0 0.00 0.00 0.00 95 1018.3
20260507095445 40 161 0.0 0.0 0.00 0.00 0.00 96 1018.4
20260507094941 39 161 0.0 0.0 0.00 0.00 0.00 96 1018.6
20260507094437 39 153 0.0 0.0 0.00 0.00 0.00 97 1018.9
20260507093934 39 152 0.0 0.0 0.00 0.00 0.00 97 1018.7
20260507093432 39 152 0.0 0.0 0.00 0.00 0.00 97 1018.6
20260507092931 38 151 0.0 0.0 0.00 0.00 0.00 97 1018.7
20260507092426 37 150 0.0 0.0 0.00 0.00 0.00 96 1018.5
20260507091923 37 150 0.0 0.0 0.00 0.00 0.00 96 1018.8
20260507091420 38 150 0.0 0.0 0.00 0.00 0.00 96 1018.6
20260507090915 37 150 0.0 0.0 0.00 0.00 0.00 96 1018.6
20260507090412 37 150 0.0 0.0 0.00 0.00 0.00 96 1018.4
20260507085909 37 150 0.0 0.0 0.00 0.00 0.00 96 1018.5
20260507085406 38 150 0.0 0.0 0.00 0.00 0.00 96 1018.5
20260507084903 38 150 0.0 0.0 0.00 0.00 0.00 96 1018.3
20260507084359 38 150 0.0 0.0 0.00 0.00 0.00 96 1018.4
20260507083857 38 150 0.0 0.0 0.00 0.00 0.00 95 1018.3
20260507083353 38 150 0.0 0.0 0.00 0.00 0.00 95 1018.2
20260507082849 38 150 0.0 0.0 0.00 0.00 0.00 95 1018.3
20260507082345 38 150 0.0 0.0 0.00 0.00 0.00 95 1018.4
20260507081843 39 150 0.0 0.0 0.00 0.00 0.00 95 1018.1
20260507081338 39 150 0.0 0.0 0.00 0.00 0.00 95 1018.4
20260507080836 39 150 0.0 0.0 0.00 0.00 0.00 95 1018.4
20260507080331 39 150 0.0 0.0 0.00 0.00 0.00 95 1018.3
20260507075827 39 150 0.0 0.0 0.00 0.00 0.00 94 1018.3
20260507075323 39 150 0.0 0.0 0.00 0.00 0.00 94 1018.5
20260507074820 39 150 0.0 0.0 0.00 0.00 0.00 93 1018.5
20260507074317 39 150 0.0 0.0 0.00 0.00 0.00 93 1018.5
20260507073814 39 150 0.0 0.0 0.00 0.00 0.00 93 1018.6
20260507073311 39 150 0.0 0.0 0.00 0.00 0.00 92 1018.6
20260507072808 39 150 0.0 0.0 0.00 0.00 0.00 92 1018.7
20260507072307 39 150 0.0 0.0 0.00 0.00 0.00 92 1018.6
20260507071803 40 150 0.0 0.0 0.00 0.00 0.00 91 1019.0
20260507071259 40 150 0.0 0.0 0.00 0.00 0.00 92 1018.7
20260507070756 40 150 0.0 0.0 0.00 0.00 0.00 91 1018.8
20260507070253 40 150 0.0 0.0 0.00 0.00 0.00 91 1018.9
20260507065750 40 150 0.0 0.0 0.00 0.00 0.00 91 1019.2
20260507065247 40 150 0.0 0.0 0.00 0.00 0.00 91 1019.0
20260507064744 40 150 0.0 0.0 0.00 0.00 0.00 90 1018.9
20260507064243 40 150 0.0 0.0 0.00 0.00 0.00 89 1018.9
20260507063740 40 150 0.0 0.0 0.00 0.00 0.00 88 1019.0
20260507063236 40 150 0.0 0.0 0.00 0.00 0.00 88 1018.9
20260507062733 41 150 0.0 0.0 0.00 0.00 0.00 87 1019.0
20260507062231 41 150 0.0 0.0 0.00 0.00 0.00 86 1018.8
20260507061729 41 150 0.0 0.0 0.00 0.00 0.00 86 1018.8
20260507061227 41 150 0.0 0.0 0.00 0.00 0.00 85 1018.9
20260507060724 42 150 0.0 0.0 0.00 0.00 0.00 84 1018.8
20260507060221 42 150 0.0 0.0 0.00 0.00 0.00 84 1019.0
20260507055716 42 150 0.0 0.0 0.00 0.00 0.00 83 1018.9
20260507055212 42 150 0.0 0.0 0.00 0.00 0.00 83 1019.0
20260507054709 42 150 0.0 0.0 0.00 0.00 0.00 81 1018.9
20260507054206 43 150 0.0 0.0 0.00 0.00 0.00 81 1019.0
20260507053703 43 150 0.0 0.0 0.00 0.00 0.00 81 1018.9
20260507053201 43 150 0.0 0.0 0.00 0.00 0.00 80 1019.1
20260507052700 43 150 0.0 0.0 0.00 0.00 0.00 80 1018.8
20260507052155 44 150 0.0 0.0 0.00 0.00 0.00 79 1019.0
20260507051653 44 150 0.0 0.0 0.00 0.00 0.00 77 1019.0
20260507051149 44 150 0.0 0.0 0.00 0.00 0.00 77 1018.7
20260507050647 44 150 0.0 0.0 0.00 0.00 0.00 76 1018.7
20260507050143 44 150 0.0 0.0 0.00 0.00 0.00 76 1018.5
20260507045640 45 150 0.0 0.0 0.00 0.00 0.00 75 1018.7
20260507045137 45 150 0.0 0.0 0.00 0.00 0.00 74 1018.6
20260507044634 46 150 0.0 0.0 0.00 0.00 0.00 73 1018.5
20260507044126 46 150 0.0 0.0 0.00 0.00 0.00 72 1018.8
20260507043621 47 148 0.0 0.0 0.00 0.00 0.00 71 1018.7
20260507043119 47 144 0.0 0.0 0.00 0.00 0.00 69 1018.7
20260507042614 48 146 0.0 0.0 0.00 0.00 0.00 69 1018.6
20260507042109 48 128 1.0 1.0 0.00 0.00 0.00 68 1018.5
20260507041606 48 143 0.0 1.0 0.00 0.00 0.00 68 1018.7
20260507041103 48 139 0.0 1.0 0.00 0.00 0.00 69 1018.6
20260507040600 48 115 1.0 1.0 0.00 0.00 0.00 71 1018.5
20260507040056 47 153 0.0 0.0 0.00 0.00 0.00 73 1018.7
20260507035552 47 154 0.0 0.0 0.00 0.00 0.00 73 1018.6
20260507035049 47 154 0.0 0.0 0.00 0.00 0.00 72 1018.4
20260507034545 48 154 0.0 0.0 0.00 0.00 0.00 70 1018.3
20260507034043 48 154 0.0 0.0 0.00 0.00 0.00 69 1018.4
20260507033541 48 154 0.0 0.0 0.00 0.00 0.00 68 1018.5
20260507033038 49 154 0.0 0.0 0.00 0.00 0.00 67 1018.4
20260507032535 50 154 0.0 0.0 0.00 0.00 0.00 66 1018.3
20260507032031 50 147 0.0 0.0 0.00 0.00 0.00 64 1018.4
20260507031527 50 149 0.0 1.0 0.00 0.00 0.00 64 1018.2
20260507031025 51 153 0.0 0.0 0.00 0.00 0.00 63 1018.3
20260507030522 51 134 0.0 1.0 0.00 0.00 0.00 63 1018.2
20260507030020 51 135 0.0 1.0 0.00 0.00 0.00 63 1018.0
20260507025516 51 150 0.0 0.0 0.00 0.00 0.00 63 1017.9
20260507025014 51 111 0.0 1.0 0.00 0.00 0.00 61 1018.1
20260507024512 52 158 0.0 2.0 0.00 0.00 0.00 62 1018.0
20260507024008 52 112 1.0 1.0 0.00 0.00 0.00 61 1017.9
20260507023504 52 127 0.0 1.0 0.00 0.00 0.00 62 1018.0
20260507023001 52 82 1.0 1.0 0.00 0.00 0.00 62 1018.2
20260507022458 52 148 0.0 0.0 0.00 0.00 0.00 62 1018.3
20260507021953 52 139 0.0 1.0 0.00 0.00 0.00 62 1017.9
20260507021449 52 146 0.0 0.0 0.00 0.00 0.00 62 1017.8
20260507020947 52 152 0.0 0.0 0.00 0.00 0.00 61 1018.2
20260507020444 53 152 0.0 0.0 0.00 0.00 0.00 60 1017.9
20260507015940 53 152 0.0 0.0 0.00 0.00 0.00 59 1017.6
20260507015439 54 148 0.0 0.0 0.00 0.00 0.00 58 1017.7
20260507014935 54 148 0.0 0.0 0.00 0.00 0.00 57 1017.6
20260507014432 54 109 1.0 1.0 0.00 0.00 0.00 57 1017.5
20260507013928 55 141 0.0 1.0 0.00 0.00 0.00 57 1017.5
20260507013425 55 150 0.0 0.0 0.00 0.00 0.00 57 1017.3
20260507012923 55 156 0.0 1.0 0.00 0.00 0.00 57 1017.5
20260507012419 55 29 2.0 5.0 0.00 0.00 0.00 55 1017.5
20260507011911 55 149 0.0 1.0 0.00 0.00 0.00 56 1017.3
20260507011408 56 141 0.0 2.0 0.00 0.00 0.00 56 1017.4
20260507010907 56 30 2.0 3.0 0.00 0.00 0.00 54 1017.3
20260507010402 56 138 0.0 2.0 0.00 0.00 0.00 55 1017.1
20260507005900 56 156 1.0 1.0 0.00 0.00 0.00 54 1017.1
20260507005356 57 124 1.0 1.0 0.00 0.00 0.00 54 1017.3
20260507004853 57 27 2.0 5.0 0.00 0.00 0.00 54 1016.8
20260507004350 57 80 1.0 3.0 0.00 0.00 0.00 53 1017.0
20260507003850 57 51 2.0 3.0 0.00 0.00 0.00 52 1017.0
20260507003343 58 21 3.0 3.0 0.00 0.00 0.00 51 1016.8
20260507002838 58 70 2.0 3.0 0.00 0.00 0.00 51 1016.8
20260507002335 58 51 1.0 3.0 0.00 0.00 0.00 50 1016.8
20260507001832 58 52 2.0 7.0 0.00 0.00 0.00 50 1016.7
20260507001329 59 144 2.0 3.0 0.00 0.00 0.00 49 1016.5
20260507000825 59 115 0.0 1.0 0.00 0.00 0.00 51 1016.7
20260507000321 59 347 2.0 6.0 0.00 0.00 0.00 50 1016.6
20260506235818 59 357 3.0 7.0 0.00 0.00 0.00 51 1016.6
20260506235314 59 4 3.0 5.0 0.00 0.00 0.00 50 1016.4
20260506234810 60 342 1.0 5.0 0.00 0.00 0.00 50 1016.3
20260506234308 60 66 1.0 5.0 0.00 0.00 0.00 49 1015.9
20260506233806 61 7 2.0 7.0 0.00 0.00 0.00 47 1015.9
20260506233256 60 322 3.0 6.0 0.00 0.00 0.00 46 1016.0
20260506232753 60 8 2.0 6.0 0.00 0.00 0.00 46 1015.9
20260506232248 60 28 4.0 6.0 0.00 0.00 0.00 45 1015.8
20260506231745 60 39 1.0 5.0 0.00 0.00 0.00 45 1016.1
20260506231243 60 338 2.0 6.0 0.00 0.00 0.00 44 1016.0
20260506230739 61 303 2.0 7.0 0.00 0.00 0.00 44 1016.2
20260506230236 61 107 0.0 2.0 0.00 0.00 0.00 48 1016.2
20260506225733 60 46 1.0 5.0 0.00 0.00 0.00 47 1016.1
20260506225230 61 3 3.0 6.0 0.00 0.00 0.00 46 1016.1
20260506224726 61 163 3.0 5.0 0.00 0.00 0.00 46 1015.9
20260506224224 62 348 3.0 6.0 0.00 0.00 0.00 46 1016.0
20260506223720 62 345 1.0 3.0 0.00 0.00 0.00 44 1016.0
20260506223215 62 352 2.0 5.0 0.00 0.00 0.00 46 1015.9
20260506222713 62 2 3.0 7.0 0.00 0.00 0.00 46 1015.9
20260506222208 62 15 3.0 3.0 0.00 0.00 0.00 46 1015.8
20260506221707 62 354 1.0 5.0 0.00 0.00 0.00 46 1016.0
20260506221204 62 18 5.0 8.0 0.00 0.00 0.00 45 1015.8
20260506220701 62 335 2.0 5.0 0.00 0.00 0.00 44 1015.8
20260506220156 62 8 2.0 3.0 0.00 0.00 0.00 47 1015.8
20260506215653 62 359 4.0 5.0 0.00 0.00 0.00 47 1015.8
20260506215148 62 69 2.0 3.0 0.00 0.00 0.00 47 1016.1
20260506214645 62 354 3.0 7.0 0.00 0.00 0.00 45 1015.9
20260506214143 62 319 3.0 6.0 0.00 0.00 0.00 46 1015.9
20260506213641 62 350 2.0 5.0 0.00 0.00 0.00 46 1015.8
20260506213138 63 10 5.0 6.0 0.00 0.00 0.00 45 1016.0
20260506212635 62 89 2.0 6.0 0.00 0.00 0.00 45 1016.0
20260506212130 61 208 4.0 5.0 0.00 0.00 0.00 46 1016.3
20260506211626 62 319 3.0 6.0 0.00 0.00 0.00 45 1016.4
20260506211123 61 212 1.0 3.0 0.00 0.00 0.00 47 1016.5
20260506210620 62 334 1.0 5.0 0.00 0.00 0.00 48 1016.4
20260506210116 62 8 3.0 5.0 0.00 0.00 0.00 47 1016.5
20260506205613 61 267 1.0 3.0 0.00 0.00 0.00 47 1016.4
20260506205108 62 18 2.0 6.0 0.00 0.00 0.00 49 1016.4
20260506204606 63 73 0.0 3.0 0.00 0.00 0.00 52 1016.5
20260506204103 62 210 2.0 2.0 0.00 0.00 0.00 47 1016.3
20260506203601 62 317 5.0 6.0 0.00 0.00 0.00 47 1016.5
20260506203057 62 21 5.0 7.0 0.00 0.00 0.00 49 1016.3
20260506202555 63 93 3.0 6.0 0.00 0.00 0.00 48 1016.7
20260506202051 63 323 4.0 6.0 0.00 0.00 0.00 49 1016.7
20260506201549 62 341 1.0 5.0 0.00 0.00 0.00 47 1016.5
20260506201045 62 3 3.0 5.0 0.00 0.00 0.00 50 1016.8
20260506200541 63 357 5.0 7.0 0.00 0.00 0.00 49 1016.8
20260506200038 61 223 2.0 2.0 0.00 0.00 0.00 49 1016.8
20260506195535 62 341 3.0 7.0 0.00 0.00 0.00 48 1016.8
20260506195032 62 58 3.0 5.0 0.00 0.00 0.00 47 1017.0
20260506194529 62 189 1.0 5.0 0.00 0.00 0.00 51 1017.0
20260506194026 63 289 3.0 7.0 0.00 0.00 0.00 48 1016.8
20260506193523 62 352 0.0 2.0 0.00 0.00 0.00 51 1017.0
20260506193020 62 8 4.0 7.0 0.00 0.00 0.00 52 1017.0
20260506192517 61 229 0.0 3.0 0.00 0.00 0.00 53 1017.3
20260506192013 60 149 2.0 3.0 0.00 0.00 0.00 53 1017.7
20260506191510 61 347 1.0 5.0 0.00 0.00 0.00 54 1017.5
20260506191006 60 185 0.0 3.0 0.00 0.00 0.00 55 1017.6
20260506190503 61 304 1.0 5.0 0.00 0.00 0.00 53 1017.5
20260506185959 61 333 4.0 5.0 0.00 0.00 0.00 53 1017.9
20260506185457 60 332 1.0 2.0 0.00 0.00 0.00 54 1017.9
20260506184953 59 31 3.0 5.0 0.00 0.00 0.00 56 1017.7
20260506184451 60 185 1.0 5.0 0.00 0.00 0.00 60 1017.9
20260506183948 61 233 1.0 2.0 0.00 0.00 0.00 58 1018.1
20260506183443 61 192 0.0 1.0 0.00 0.00 0.00 62 1018.4
20260506182941 59 171 1.0 2.0 0.00 0.00 0.00 62 1018.2
20260506182438 58 66 0.0 1.0 0.00 0.00 0.00 59 1018.7
20260506181935 59 3 4.0 5.0 0.00 0.00 0.00 58 1018.5
20260506181433 59 184 0.0 3.0 0.00 0.00 0.00 61 1018.6
20260506180929 58 13 1.0 5.0 0.00 0.00 0.00 61 1018.7
20260506180426 59 337 2.0 3.0 0.00 0.00 0.00 61 1018.6
20260506175923 59 183 0.0 1.0 0.00 0.00 0.00 66 1018.4
20260506175420 58 324 1.0 5.0 0.00 0.00 0.00 63 1018.2
20260506174916 58 342 2.0 7.0 0.00 0.00 0.00 63 1018.3
20260506174414 59 300 3.0 3.0 0.00 0.00 0.00 62 1018.3
20260506173911 58 309 2.0 3.0 0.00 0.00 0.00 61 1018.5
20260506173408 58 52 0.0 5.0 0.00 0.00 0.00 60 1018.7
20260506172859 58 117 0.0 2.0 0.00 0.00 0.00 63 1018.8
20260506172355 58 91 0.0 5.0 0.00 0.00 0.00 62 1018.7
20260506171853 57 122 1.0 3.0 0.00 0.00 0.00 64 1018.5
20260506171350 57 18 1.0 2.0 0.00 0.00 0.00 64 1018.6
20260506170848 57 11 1.0 2.0 0.00 0.00 0.00 63 1018.5
20260506170344 58 169 2.0 5.0 0.00 0.00 0.00 64 1018.1
20260506165843 58 1 3.0 5.0 0.00 0.00 0.00 63 1018.2
20260506165340 58 340 3.0 5.0 0.00 0.00 0.00 63 1017.9
20260506164836 56 186 1.0 3.0 0.00 0.00 0.00 67 1018.1
20260506164333 57 59 2.0 5.0 0.00 0.00 0.00 64 1018.0
20260506163825 56 136 1.0 8.0 0.00 0.00 0.00 66 1017.7
20260506163325 56 26 1.0 3.0 0.00 0.00 0.00 65 1017.8
20260506162821 57 352 3.0 3.0 0.00 0.00 0.00 62 1017.9
20260506162319 58 173 2.0 2.0 0.00 0.00 0.00 67 1017.9
20260506161816 58 173 0.0 1.0 0.00 0.00 0.00 68 1017.9
20260506161313 57 186 2.0 3.0 0.00 0.00 0.00 66 1018.0
20260506160806 56 82 3.0 5.0 0.00 0.00 0.00 63 1018.0
20260506160302 56 269 2.0 3.0 0.00 0.00 0.00 66 1017.9
20260506155801 55 182 1.0 3.0 0.00 0.00 0.00 70 1017.9
20260506155257 54 83 2.0 2.0 0.00 0.00 0.00 68 1017.6
20260506153409 54 252 3.0 6.0 0.00 0.00 0.00 67 1017.7
20260506152907 54 134 1.0 3.0 0.00 0.00 0.00 72 1017.7
20260506152403 53 225 1.0 2.0 0.00 0.00 0.00 71 1017.5
20260506151902 53 343 3.0 3.0 0.00 0.00 0.00 71 1017.5
20260506151358 53 4 1.0 1.0 0.00 0.00 0.00 72 1017.6
20260506150856 52 161 0.0 1.0 0.00 0.00 0.00 75 1017.9
20260506150352 51 308 3.0 3.0 0.00 0.00 0.00 75 1018.0
20260506145849 51 203 1.0 3.0 0.00 0.00 0.00 74 1017.6
20260506145345 50 8 1.0 6.0 0.00 0.00 0.00 75 1017.9
20260506144843 50 325 3.0 6.0 0.00 0.00 0.00 75 1018.0
20260506144339 50 322 2.0 6.0 0.00 0.00 0.00 76 1017.9
20260506143838 50 68 1.0 2.0 0.00 0.00 0.00 78 1017.6
20260506143335 50 55 2.0 5.0 0.00 0.00 0.00 78 1017.6
20260506142833 49 47 2.0 3.0 0.00 0.00 0.00 79 1017.6
20260506142331 49 38 3.0 5.0 0.00 0.00 0.00 80 1017.4
20260506141829 48 17 1.0 2.0 0.00 0.00 0.00 82 1017.6
20260506141327 48 335 2.0 3.0 0.00 0.00 0.00 83 1017.7
20260506140824 48 11 2.0 3.0 0.00 0.00 0.00 83 1017.8
20260506140321 48 11 2.0 5.0 0.00 0.00 0.00 82 1017.6
20260506135818 48 144 0.0 2.0 0.00 0.00 0.00 85 1017.6
20260506135315 47 353 2.0 3.0 0.00 0.00 0.00 85 1017.4
20260506134811 47 150 0.0 3.0 0.00 0.00 0.00 86 1017.4
20260506134308 47 104 0.0 3.0 0.00 0.00 0.00 85 1017.6
20260506133805 47 170 2.0 3.0 0.00 0.00 0.00 86 1017.4
20260506133301 47 298 1.0 5.0 0.00 0.00 0.00 87 1017.4
20260506132758 46 14 3.0 3.0 0.00 0.00 0.00 89 1016.8
20260506132255 46 101 1.0 3.0 0.00 0.00 0.00 91 1017.0
20260506131753 46 12 2.0 3.0 0.00 0.00 0.00 93 1017.3
20260506131249 46 325 3.0 6.0 0.00 0.00 0.00 93 1017.0
20260506130746 46 339 3.0 5.0 0.00 0.00 0.00 94 1017.4
20260506130243 46 132 1.0 3.0 0.00 0.00 0.00 94 1017.4
20260506125741 46 334 2.0 5.0 0.00 0.00 0.00 94 1017.5
20260506125238 45 30 1.0 2.0 0.00 0.00 0.00 95 1017.5
20260506124737 45 118 1.0 2.0 0.00 0.00 0.00 95 1017.4
20260506124234 45 33 1.0 2.0 0.00 0.00 0.00 95 1017.7
20260506123731 45 36 2.0 7.0 0.00 0.00 0.00 95 1017.8
20260506123230 45 102 2.0 3.0 0.00 0.00 0.00 95 1017.7
20260506122726 45 121 1.0 3.0 0.00 0.00 0.00 95 1017.9